Regional Weather Roundup
Issued by NWS

Home | Current Version | Previous Version | Text Only | Print | Product List | Glossary On
Versions: 1 2 3 4 5 6 7 8 9 10 11 12 13 14 15 16 17 18 19 20 21 22 23 24 25 26 27 28 29 30 31 32 33 34 35 36 37 38 39 40 41 42 43 44 45 46 47 48 49 50
000
ASUS42 KKEY 171510
RWRKEY

FLORIDA REGIONAL WEATHER ROUNDUP FOR THE FLORIDA KEYS
NATIONAL WEATHER SERVICE KEY WEST FLORIDA
1100 AM EDT WED SEP 17 2014

...SOUTH FLORIDA AND THE KEYS...

CITY           SKY/WX    TMP DP  RH WIND       PRES   REMARKS
FORT MYERS     CLOUDY    83  73  72 SW6       29.97S
SW REGIONAL AP PTSUNNY   83  69  62 W6        29.98S
NAPLES         PTSUNNY   84  74  71 S6        29.98S HX  91
MIAMI          PTSUNNY   86  71  60 NW8       29.99S HX  91
WEST KENDALL   MOSUNNY   87  73  62 W9        29.99S HX  94
HOMESTEAD      MOSUNNY   85  72  65 VRB6      29.99R HX  91
MARATHON       MOSUNNY   86  75  69 N3        30.00R HX  95
BOCA CHICA NAS PTSUNNY   85  74  69 NW5       30.00R HX  92
KEY WEST INTL  SUNNY     86  73  65 N3        30.00R HX  93

...INTERNATIONAL WEATHER...

CITY           SKY/WX    TMP DP  RH WIND       PRES   REMARKS
NASSAU BAHAMAS PTSUNNY   88  77  70 E3        30.00F HX 100
CANCUN MEXICO  MOSUNNY   86  77  74 SE7       29.99S HX  97
COZUMEL MEXICO PTSUNNY   81  77  89 CALM      29.99S

ADJACENT COASTAL WATERS...

STATION/POSITION TIME  SKY/WX   TEMP    WIND        PRES    WAVE
                                AIR SEA DIR/SP/G            HT/PER
                 (UTC)          (F)     (DEG/KT/KT) (MB)    (FT/S)
PULASKI SHOAL LI 1500            86      60/  2/  2 1015.7R
SAND KEY         1500            82      30/  2/  3 1015.9R
SOMBRERO KEY     1500            83     270/  2/  3 1016.6R
LONG KEY         1355            82 84  360/  2/  3 1016.3R
MOLASSES REEF    1500            84 86   CALM  /  4 1015.8R
FOWEY ROCKS      1500            84 85  240/  6/  6 1015.9R
Buoy 42080       NOT AVBL

$$


USA.gov is the U.S. government's official web portal to all federal, state and local government web resources and services.